Location: アルンシュタイン
(50.0000°N, 10.0000°E)
Time: 20:29:43
(UTC+02:00)

Explorer 11/Cluster Stage 4 - Pass Details

Date: 12 September 2024
Orbit: 464 x 1207 km, 28.8° (Epoch: 11 October)

Event Time Altitude Azimuth Distance (km) Brightness Sun altitude
Rises 11:52:04 0° 238° (WSW) 4,086 10.3 40.6°
Reaches altitude 10° 11:56:42 10° 215° (SW) 3,146 10.1 40.9°
Maximum altitude 12:00:14 14° 188° (S) 2,861 10.4 41.2°
Drops below altitude 10° 12:03:44 10° 161° (SSE) 3,088 10.8 41.4°
Sets 12:08:12 0° 137° (SE) 3,953 10.9 41.7°
